EW2420 Weather Reports


Display with metric or nautical units.
time (UTC)temp
F
wind
direction
speed
MPH
gust
MPH
rain 1hr
in
rain 24hr
in
rain mn
in
humidity
%
barometer
mb
20260504041546 45 205 5.0 7.0 0.00 0.07 0.07 95 1000.9
20260504040045 45 312 0.0 0.0 0.00 0.07 0.07 95 1001.1
20260504034526 45 312 0.0 0.0 0.00 0.07 0.07 95 1001.1
20260504033025 45 312 0.0 1.0 0.01 0.07 0.07 94 1001.2
20260504031507 46 312 0.0 1.0 0.03 0.07 0.07 94 1001.1
20260504030013 46 312 0.0 6.0 0.05 0.07 0.07 94 1001.5
20260504024552 46 302 4.0 9.0 0.06 0.07 0.07 93 1001.6
20260504023047 46 302 7.0 13.0 0.05 0.06 0.06 93 1001.9
20260504021525 46 300 8.0 14.0 0.03 0.04 0.04 93 1002.2
20260504020023 45 303 5.0 9.0 0.01 0.02 0.02 92 1002.1
20260504014503 45 327 2.0 7.0 0.00 0.01 0.01 91 1002.0
20260504013004 45 334 4.0 8.0 0.00 0.01 0.01 92 1001.9
20260504011547 45 294 1.0 7.0 0.00 0.01 0.01 92 1001.8
20260504010046 44 286 1.0 5.0 0.01 0.01 0.01 92 1001.8
20260504004615 44 321 0.0 2.0 0.01 0.01 0.01 91 1001.7
20260504003048 44 322 2.0 5.0 0.01 0.01 0.01 90 1001.9
20260504001600 45 327 1.0 7.0 0.01 0.01 0.01 87 1001.9
20260504000035 45 311 1.0 13.0 0.00 0.00 0.00 83 1002.1
20260503234533 46 223 3.0 7.0 0.00 0.00 0.00 81 1002.1
20260503233035 47 321 5.0 12.0 0.00 0.00 0.00 78 1002.2
20260503231510 47 325 5.0 12.0 0.00 0.00 0.00 74 1002.1
20260503230006 48 319 3.0 10.0 0.00 0.00 0.00 70 1002.2
20260503224544 50 248 5.0 13.0 0.00 0.00 0.00 66 1002.2
20260503223040 51 307 2.0 8.0 0.00 0.00 0.00 62 1002.0
20260503221517 51 340 4.0 14.0 0.00 0.00 0.00 59 1002.1
20260503220015 51 311 3.0 11.0 0.00 0.00 0.00 57 1002.1
20260503214600 52 219 6.0 10.0 0.00 0.00 0.00 53 1002.1
20260503213055 52 267 2.0 6.0 0.00 0.00 0.00 50 1002.2
20260503211536 51 240 2.0 7.0 0.00 0.00 0.00 50 1002.3
20260503210036 52 223 4.0 11.0 0.00 0.00 0.00 48 1002.3
20260503204517 52 263 3.0 10.0 0.00 0.00 0.00 46 1002.4
20260503203035 53 288 3.0 13.0 0.00 0.00 0.00 44 1002.5
20260503201555 55 298 4.0 12.0 0.00 0.00 0.00 41 1002.8
20260503200054 55 323 5.0 19.0 0.00 0.00 0.00 42 1002.9
20260503194541 54 50 3.0 14.0 0.00 0.00 0.00 41 1003.2
20260503193037 54 321 8.0 15.0 0.00 0.00 0.00 39 1003.4
20260503191512 54 318 10.0 19.0 0.00 0.00 0.00 37 1003.7
20260503190011 54 260 10.0 19.0 0.00 0.00 0.00 34 1004.0
20260503184609 53 250 7.0 19.0 0.00 0.00 0.00 43 1004.1
20260503183049 53 209 6.0 15.0 0.00 0.00 0.00 48 1004.2
20260503181557 53 203 9.0 18.0 0.00 0.00 0.00 44 1004.3
20260503180034 53 190 3.0 15.0 0.00 0.00 0.00 44 1004.5
20260503174527 53 226 5.0 10.0 0.00 0.00 0.00 49 1004.5
20260503173008 51 182 6.0 13.0 0.00 0.00 0.00 47 1004.7
20260503171505 51 219 2.0 13.0 0.00 0.00 0.00 45 1004.9
20260503081514 30 314 0.0 2.0 0.00 0.00 0.00 79 1007.5
20260503071524 33 322 3.0 6.0 0.00 0.00 0.00 74 1007.4
20260503054503 34 317 6.0 8.0 0.00 0.00 0.00 75 1007.9
20260503053006 35 314 6.0 8.0 0.00 0.00 0.00 73 1007.9
20260503051559 34 315 5.0 7.0 0.00 0.00 0.00 73 1008.1
20260503050039 36 315 5.0 8.0 0.00 0.00 0.00 71 1008.0
20260503044537 36 317 6.0 9.0 0.00 0.00 0.00 71 1008.1
20260503043025 36 309 5.0 7.0 0.00 0.00 0.00 71 1008.1